Home > Weather > Milton Keynes > Past weeks

Flag for United Kingdom Past Weather in Milton Keynes, England, United Kingdom — Yesterday and Last 2 Weeks

Now
54 °F

Cool.


Feels Like: 51 °F
Forecast: 53 / 63 °F
Wind: 8 mph from Northwest

Location: Luton Airport

Current Time: Jul 31, 2016 at 4:42:35 AM

Latest Report: Jul 31, 2016 at 4:20 AM


Visibility: N/A

Pressure: 29.98 "Hg

Humidity: 82%

Dew Point: 48 °F

Location of Milton KeynesLocation

Past Weather in Milton Keynes — Graph

°F

Milton Keynes Temperature Yesterday

Maximum temperature yesterday: 72 °F (at 2:20 PM)
Minimum temperature yesterday: 57 °F (at 3:50 AM)
Average temperature yesterday: 63 °F

High & Low Weather Summary for the Past Weeks

 TemperatureHumidityPressure
High88 °F (Jul 19, 1:50 PM)100% (Jul 16, 3:20 AM)30.27 "Hg (Jul 16, 3:20 AM)
Low54 °F (Jul 26, 4:50 AM)25% (Jul 18, 3:50 PM)29.71 "Hg (Jul 20, 8:20 AM)
Average67 °F75%30.04 "Hg
* Reported Jul 16 3:20 AM — Jul 31 3:20 AM, Milton Keynes, Weather by CustomWeather, © 2016

Note: Actual official high and low records may vary slightly from our data, if they occured in-between our weather recording intervals... More about our weather records

Advertising

Milton Keynes Weather History for the Previous 24 Hours

Scroll right to see more
 ConditionsComfort  
Time TempWeatherWind HumidityBarometerVisibility
3:20 AM
Sun, Jul 31
55 °FCool.8 mph77%29.98 "HgN/A
2:50 AM55 °FCool.7 mph77%29.98 "HgN/A
2:20 AM55 °FCool.7 mph77%29.98 "HgN/A
1:50 AM57 °FCool.9 mph72%29.98 "HgN/A
1:20 AM57 °FCool.8 mph77%29.98 "HgN/A
12:50 AM57 °FPassing clouds.6 mph77%29.98 "HgN/A
12:20 AM57 °FPassing clouds.3 mph77%29.98 "HgN/A
11:50 PM
Sat, Jul 30
57 °FCool.6 mph77%29.98 "HgN/A
11:20 PM59 °FCool.5 mph72%29.98 "HgN/A
10:50 PM61 °FPassing clouds.6 mph68%29.98 "HgN/A
10:20 PM61 °FCool.6 mph68%29.98 "HgN/A
9:50 PM61 °FPassing clouds.6 mph68%29.98 "HgN/A
9:20 PM63 °FMild.6 mph64%29.95 "HgN/A
8:50 PM63 °FMild.6 mph59%29.95 "HgN/A
8:20 PM64 °FMild.8 mph56%29.95 "HgN/A
7:50 PM66 °FMild.9 mph52%29.95 "HgN/A
7:20 PM66 °FPassing clouds.8 mph52%29.95 "HgN/A
6:50 PM68 °FMild.8 mph46%29.95 "HgN/A
6:20 PM68 °FMild.10 mph49%29.95 "HgN/A
5:50 PM68 °FScattered clouds.10 mph53%29.95 "HgN/A
5:20 PM68 °FPartly sunny.13 mph53%29.95 "HgN/A
4:50 PM70 °FPartly sunny.10 mph43%29.95 "HgN/A
4:20 PM70 °FPartly sunny.9 mph46%29.95 "HgN/A
3:50 PM70 °FMild.10 mph50%29.95 "HgN/A
3:20 PM70 °FScattered clouds.12 mph53%29.92 "HgN/A
2:50 PM68 °FPartly sunny.10 mph56%29.92 "HgN/A
2:20 PM72 °FScattered clouds.10 mph47%29.92 "HgN/A
1:50 PM70 °FPassing clouds.8 mph53%29.92 "HgN/A
1:20 PM68 °FScattered clouds.6 mph60%29.92 "HgN/A
12:50 PM66 °FPassing clouds.9 mph64%29.95 "HgN/A
12:20 PM66 °FPassing clouds.8 mph60%29.95 "HgN/A
11:50 AM66 °FPassing clouds.8 mph64%29.95 "HgN/A
11:20 AM66 °FPassing clouds.7 mph64%29.95 "HgN/A
10:50 AM66 °FPassing clouds.8 mph68%29.92 "HgN/A
10:20 AM64 °FScattered clouds.6 mph73%29.92 "HgN/A
9:50 AM61 °FPartly sunny.7 mph83%29.92 "HgN/A
9:20 AM61 °FPartly sunny.7 mph83%29.92 "HgN/A
8:50 AM61 °FPartly sunny.8 mph88%29.92 "HgN/A
8:20 AM59 °FScattered clouds.8 mph94%29.92 "HgN/A
7:50 AM59 °FBroken clouds.9 mph94%29.92 "HgN/A
7:20 AM57 °FScattered clouds.10 mph94%29.92 "HgN/A
6:50 AM57 °FMore clouds than sun.8 mph100%29.92 "HgN/A
6:20 AM59 °FMostly cloudy.6 mph94%29.89 "HgN/A
5:50 AM59 °FMostly cloudy.7 mph100%29.89 "Hg6 mi
5:20 AM59 °FMostly cloudy.6 mph100%29.89 "HgN/A
4:50 AM59 °FMostly cloudy.6 mph100%29.89 "HgN/A
4:20 AM59 °FOvercast.5 mph100%29.89 "HgN/A
Weather by CustomWeather, © 2016

See weather overviewHow to use our weather pages